Printer-friendly version
Follow the MPC on Twitter Follow the MPC on Facebook The MPC blog
Minor Planet Center

MPEC 2010-Q19 : COMET P/2000 Y3 = 2010 Q1 (SCOTTI)

The following Minor Planet Electronic Circular may be linked-to from your own Web pages, but must not otherwise be redistributed electronically.

A form allowing access to any MPEC is at the bottom of this page.


Read MPEC 2010-Q18 Read MPEC 2010-Q20


M.P.E.C. 2010-Q19                                Issued 2010 Aug. 21, 14:38 UT

     The Minor Planet Electronic Circulars contain information on unusual
         minor planets and routine data on comets.  They are published
   on behalf of Commission 20 of the International Astronomical Union by the
          Minor Planet Center, Smithsonian Astrophysical Observatory,
                          Cambridge, MA 02138, U.S.A.

             Prepared using the Tamkin Foundation Computer Network

                              MPC@CFA.HARVARD.EDU
       URL http://www.minorplanetcenter.org/iau/mpc.html  ISSN 1523-6714

                      COMET P/2000 Y3 = 2010 Q1 (SCOTTI)

Observations:
    PK10Q010  C2009 09 18.29373 23 00 06.57 -06 50 18.5          21.8 N EQ019291
    PK10Q010  C2009 09 18.29912 23 00 06.38 -06 50 19.0          21.8 N EQ019291
    PK10Q010  C2009 09 18.30448 23 00 06.27 -06 50 20.6          22.1 N EQ019291
    PK10Q010  C2010 08 19.37705 01 57 22.03 +13 10 01.1          20.9 N EQ019691
    PK10Q010  C2010 08 19.42327 01 57 22.20 +13 10 03.8          20.7 N EQ019691
    PK10Q010  C2010 08 19.46953 01 57 22.38 +13 10 06.2          20.8 N EQ019691
    PK10Q010  C2010 08 20.38531 01 57 26.15 +13 10 55.7          21.0 N EQ019691
    PK10Q010  C2010 08 20.42521 01 57 26.31 +13 10 57.7          21.1 N EQ019691
    PK10Q010  C2010 08 20.46447 01 57 26.38 +13 11 00.4          20.8 N EQ019691

Observer details:
691 Steward Observatory, Kitt Peak.  Observer J. V. Scotti.  0.9-m f/3
    reflector + CCD.
291 LPL/Spacewatch II.  Observer T. H. Bressi.  1.8-m f/2.7 reflector + CCD.

Orbital elements:
    P/2000 Y3 = 2010 Q1 (Scotti)
Epoch 2000 Oct. 23.0 TT = JDT 2451840.5
T 2000 Nov. 2.33075 TT                                  MPC
q   4.0476046            (2000.0)            P               Q
n   0.08651064     Peri.   88.61663     +0.10693699     -0.99426048
a   5.0631762      Node   355.24092     +0.89591760     +0.09777775
e   0.2005799      Incl.    2.24740     +0.43115673     +0.04342370
P  11.39

Epoch 2012 Feb. 3.0 TT = JDT 2455960.5
T 2012 Jan. 20.32181 TT                                 MPC
q   3.9181964            (2000.0)            P               Q
n   0.09094251     Peri.   92.59135     +0.05660410     -0.99838864
a   4.8973156      Node   354.15921     +0.89963476     +0.05274672
e   0.1999298      Incl.    2.25907     +0.43295875     +0.02092604
P  10.84
Residuals in seconds of arc
001129 704  0.1+  0.1-    010121 349  0.0   0.4+    020207 360  0.3-  0.0
001129 704  0.2-  0.1-    010121 349  0.7-  1.1-    020208 704  0.4+  0.0
001129 704  0.5-  0.4+    010121 349  0.1-  1.7-    020208 704  0.3-  0.6+
001129 704  0.1+  0.2+    010121 360  0.8+  0.4-    020208 704  0.4+  0.2+
001129 704  1.2-  0.0     010121 360  0.7+  0.3-    020208 704  0.4-  0.2-
001221 704  0.9-  0.0     010121 360  0.6+  0.2-    020208 704  0.2+  0.0
001221 704  0.5-  1.0-    010219 360  1.6+  0.5-    020210 704  0.0   0.1-
001221 704  0.2+  0.1+    010219 360  0.7+  0.1-    020210 704  1.0-  0.2+
001221 704  0.9+  0.1+    010222 170  1.6-  1.4-    020210 704  1.4-  0.4-
001221 704  0.9+  0.5+    010227 118  1.2+  0.1-    020210 704  1.9-  0.6-
001230 691  0.9-  0.1+    010227 118  0.8+  0.1+    020210 704  0.7-  0.0
001230 691  0.1+  0.2-    010227 118  0.9+  0.1-    020212 809  0.5+  0.3-
001230 691  0.2+  0.1-    010314 118  1.1+  0.1+    020212 333  0.8-  0.7+
001230 704  0.5-  1.5-    010314 118  0.6+  0.1+    020212 333  0.4-  0.3+
001230 704  0.1-  0.1-    010314 118  1.1+  0.3-    020212 333  0.2+  0.5+
001230 704  0.4-  0.1+    010315 704  0.8-  1.9-    020212 704  1.0+  0.1+
001230 704  0.3+  0.1-    010315 704  0.5+  0.4-    020212 704  0.3+  1.2+
001230 704  0.2+  0.3-    010315 704  1.8+  0.2-    020212 691  0.5+  0.1-
001230 046  0.3-  0.3-    010315 704  0.9+  1.7+    020212 704  0.2+  0.1-
001230 046  0.3-  0.5-    010315 360  1.2+  0.2-    020212 691  0.0   0.6-
001230 046  0.1+  0.4-    010315 360  1.1+  0.2-    020212 704  1.2-  0.5+
001230 046  0.0   0.4-    010318 704  0.8+  0.4+    020213 809  0.5+  0.2-
001230 046  0.9-  0.6-    010318 704  0.9+  0.8+    020213 809  0.4+  0.2-
001230 046  0.2-  0.0     010318 704  0.4+  0.1-    020213 I03  0.1-  0.5-
001230 143  0.3-  1.4-    010318 704  1.0+  1.3-    020213 809  0.7+  0.3-
001230 143  0.5-  0.8-    010404 402  0.2+  0.4-    020213 I03  0.1-  0.4-
001230 143  0.3+  0.6-    010404 402  1.5+  0.1+    020213 809  0.4+  0.3-
001231 691  0.2-  0.7+    010404 402  0.0   0.2+    020213 I03  0.4-  0.3-
001231 691  0.3-  0.7+    010419 360  1.3+  0.1+    020214 809  0.3+  0.2-
001231 596  0.2-  0.8-    010419 360  0.9+  0.3+    020219 691  0.3+  0.5+
001231 596  0.4+  1.3-    010419 360  0.9+  0.4+    020219 691  0.1-  0.5+
001231 596 (1.0-  3.4-)   011117 557  0.8-  0.2-    020219 691  0.3-  0.2+
001231 461  0.3+  0.2-    011117 557  1.0-  0.2-    020220 704  0.8+  0.2+
001231 461  0.1+  0.4-    011117 557  0.9-  0.2-    020220 704  0.4+  0.0
010101 691  0.4-  1.0+    011117 704  1.2+  0.9+    020220 704  0.1+  0.2+
010101 691  0.3-  0.4+    011117 704  1.6+  0.3+    020220 704  0.3+  0.4+
010101 691  0.6+  0.5-    011117 704  0.6+  0.4-    020220 704  0.8-  0.0
010101 341  0.2+  0.2-    011117 704  1.5+  0.6+    020304 703  0.1-  0.2-
010101 341  0.1-  0.1+    011118 704  0.1+  0.5+    020304 703  0.1+  0.7+
010101 341  0.9+  0.1-    011118 704  0.8-  0.3+    020304 703  1.1-  0.7+
010101 341  0.1+  0.1-    011118 704  0.5+  0.7+    020304 703  0.1+  0.5+
010101 341  0.1+  0.1-    011209 691  1.3-  1.6+    020305 333  1.3+  1.7-
010101 411  0.2+  0.3-    011209 691  1.1-  0.2+    020305 333  1.3+  0.6+
010101 411  0.1+  1.0-    011209 691  0.8-  0.2+    020305 333 (2.5+  0.6-)
010101 411  0.4-  0.7-    011221 170  1.0-  0.4-    020305 699  0.4+  0.8+
010102 739  0.4-  1.6-    020109 704  0.7+  0.6+    020305 699  0.6+  0.3-
010102 739  0.8+  0.3+    020109 704  0.2-  0.8+    020305 699  0.1+  0.5+
010102 739  2.0+  1.6-    020109 704  0.7+  1.8+    020305 699  1.8+  0.3-
010102 704  0.3+  0.6-    020109 704  0.4+  1.4+    020309 704  1.6+  0.2-
010102 704  0.1-  0.5-    020111 333  0.5-  0.6-    020309 704  0.7+  0.5+
010102 704  1.1+  1.5-    020111 333  0.1-  0.8-    020309 704  1.2+  0.2+
010103 704  0.4+  0.7-    020111 333  1.1+  0.3-    020309 704  0.9+  1.1+
010103 704  0.6-  0.2+    020111 333  0.2+  0.1-    020309 704  0.4+  0.2+
010103 704  0.2+  1.1-    020111 333  0.7-  0.4+    020312 333  0.6+  0.6-
010103 704  0.4-  0.6-    020111 333  0.2+  1.1-    020312 644  0.5+  0.0
010103 704  0.0   0.4-    020111 360  0.3+  0.1+    020312 333  0.4-  0.4-
010103 349  0.0   1.0-    020111 360  0.1+  0.4+    020312 644  0.4+  0.1+
010103 349  0.7-  0.3+    020114 704  0.6+  0.3+    020312 644  0.6+  0.1+
010104 691  0.4-  0.1+    020114 704  0.6-  0.5-    020312 333  0.3+  0.4-
010104 691  0.9-  0.1+    020114 704  0.0   0.6+    020318 691  0.8+  0.4+
010104 691  1.2-  0.1+    020114 704  0.3-  0.5+    020318 691  0.2+  1.6+
010104 691  0.4+  0.3+    020114 704  0.3+  0.3+    020320 691  0.3-  0.0
010104 691  0.6-  1.1+    020118 704  0.1+  0.5-    020320 691  0.2+  0.4-
010104 691  1.0-  1.5+    020118 704  0.4-  0.2-    020320 691  0.2-  0.1-
010104 372  0.5-  0.4+    020118 704  1.3-  0.5-    020323 644  0.6+  0.0
010105 691  0.4+  0.9-    020118 704  1.4-  0.1+    020323 644  1.0+  0.0
010106 341  0.7+  0.4-    020121 704  0.0   0.3+    020323 644  0.8+  0.2+
010106 341  0.2+  0.4-    020121 704  0.5+  0.2-    020514 704  0.9+  0.3+
010106 341  0.1+  0.8-    020121 704  0.3-  0.8-    020514 704  1.5+  0.2+
010115 372  0.6-  0.7+    020121 704  1.1-  0.6+    020514 704 (2.1+  0.5+)
010116 372  0.4-  1.1+    020202 170  0.9+  0.3-    090918 291  0.4-  0.8+
010118 372 (0.1-  2.3+)   020202 170  0.7-  0.4-    090918 291  0.8-  1.2+
010120 704  0.9+  0.3-    020205 644  0.2-  0.1-    090918 291  0.1+  0.5+
010120 704  0.4+  0.5-    020205 644  0.1-  0.0     100819 691  0.4-  0.5+
010120 704  0.8+  0.5-    020205 644  0.7-  0.2+    100819 691  0.4-  0.5+
010120 704  0.3+  0.5-    020207 704  0.2+  0.1-    100819 691  0.2-  0.3+
010121 704  0.5+  1.2-    020207 704  1.4+  0.5-    100820 691  0.1-  0.0
010121 704  0.8+  1.0-    020207 704  0.2-  0.1-    100820 691  0.5+  0.2-
010121 704 (2.6+  1.2-)   020207 704  0.5+  0.2+    100820 691  0.0   0.5+
010121 704  1.4+  0.4-    020207 704  0.6+  0.0
010121 704  1.3-  0.6-    020207 360  0.4+  0.1-

Ephemeris:
    P/2000 Y3 = 2010 Q1 (Scotti)
Date    TT    R. A. (2000) Decl.     Delta      r     Elong.  Phase   m1    m2
2010 08 12    01 56.43   +13 01.0    3.961    4.373   107.4    12.8  18.4
2010 08 22    01 57.51   +13 12.3    3.809    4.358   116.7    12.0  18.3
2010 09 01    01 57.17   +13 15.9    3.668    4.344   126.4    10.8  18.2
2010 09 11    01 55.36   +13 11.7    3.543    4.329   136.5     9.2  18.1
2010 09 21    01 52.18   +12 59.9    3.437    4.315   147.1     7.3  18.0
2010 10 01    01 47.82   +12 40.9    3.356    4.301   158.0     5.0  18.0
2010 10 11    01 42.58   +12 16.1    3.302    4.287   169.1     2.5  17.9
2010 10 21    01 36.89   +11 47.5    3.278    4.273   178.3     0.4  17.9
2010 10 31    01 31.24   +11 17.7    3.283    4.259   167.9     2.8  17.9
2010 11 10    01 26.09   +10 49.4    3.319    4.246   156.5     5.3  17.9
2010 11 20    01 21.88   +10 25.4    3.382    4.232   145.4     7.6  17.9
2010 11 30    01 18.94   +10 07.8    3.469    4.219   134.5     9.6  18.0
2010 12 10    01 17.46   +09 58.3    3.576    4.206   124.0    11.2  18.0
2010 12 20    01 17.55   +09 57.6    3.698    4.193   113.8    12.4  18.1
2010 12 30    01 19.18   +10 06.0    3.832    4.181   104.1    13.2  18.1
2011 01 09    01 22.30   +10 23.0    3.971    4.168    94.7    13.6  18.2
2011 01 19    01 26.79   +10 47.9    4.113    4.156    85.7    13.7  18.3
2011 01 29    01 32.53   +11 19.9    4.253    4.144    77.0    13.4  18.3
2011 02 08    01 39.38   +11 58.0    4.388    4.133    68.7    12.8  18.4
2011 02 18    01 47.21   +12 40.9    4.515    4.121    60.6    12.1  18.4
2011 02 28    01 55.90   +13 27.8    4.633    4.110    52.8    11.1  18.5
2011 03 10    02 05.34   +14 17.6    4.738    4.099    45.2     9.9  18.5
2011 03 20    02 15.42   +15 09.3    4.829    4.089    37.8     8.6  18.5
2011 03 30    02 26.05   +16 02.1    4.905    4.078    30.6     7.2  18.6

Brian G. Marsden             (C) Copyright 2010 MPC           M.P.E.C. 2010-Q19

Read MPEC 2010-Q18 Read MPEC 2010-Q20


MPEC number:

Enter an MPEC number in one of the following forms:

  • 1997-B01 (the full form)
  • J97B01 (the packed version of the full form)
  • B01 (the abbreviated form)

Valid HTML 4.01!